Find Praetorian SDA-615

NORAD ID: 65578 Int'l Des: 2025-203 Owner: SDA Country: US operational
LEOCIRCULARPOLAR

Live Position

Loading 3D Globe...

About Praetorian SDA-615

Description loading...

Upcoming Passes

Passes for default location (London). Set your location on the main map for personalized predictions.

Altitude History

Loading altitude history...

Two-Line Element Set

1 65578U 25203P 26106.87084182 .00000110 00000-0 87692-4 0 9994
2 65578 81.3014 67.3657 0009353 5.3325 354.7929 13.84427321 30223
Epoch: Apr 16, 2026 • Age: 19 hours

Current Status

Altitude 958.9 km
Velocity 7.38 km/s
Sub-Earth Point 73.81°N, 7.23°E
Launch Date Sep 10, 2025
Age 0.5 years
Type other

Technical Details

Classification Payload
Mass 300.00 kg
Dry Mass 300.00 kg
Total Mass 300.00 kg
Length 1.00 m
Diameter 0.60 m
Span 2.00 m
Shape Box + panels
Manufacturer YORKSS
Bus Type S-Class
Phase Status In Orbit
Owner/State SDA/US

Most Searched